Reykjavik current weather conditions

sailwx.info

Wind at 0 knots

Air temperature -0.0° C
Visibility: greater than 5.4 NM
Dewpoint -6.0° C

Last reported at 2020-Feb-18 11:00 UTC.
Time now 2020-Feb-18 12:11 UTC

Location: N 64°08' W 021°56'.
View on Google Maps.

See reports from other nearby stations

  
Tides and Currents Weather Stations Pressure Air Temp Water Temp Dewpoint Dewpoint Depression Visibility Wind Speed Wind Dir Waves Ship Positions
date/time (UTC)wind fromknots sea level pressurealtimeterstation pressurevisibilityair tempwater tempwave heightnotes
2020-Feb-18 11:00 5.4-0.0
2020-Feb-18 10:00 5.4-1.0 Showers in the vicinity.
2020-Feb-18 09:00 5.4-1.0
2020-Feb-18 08:00 120 2 5.4-2.0
2020-Feb-18 07:00 170 2 5.4-2.0
2020-Feb-18 06:00 130 1 5.4-2.0
2020-Feb-18 05:00 170 2 5.4-2.0
2020-Feb-18 04:00 5.4-1.0
2020-Feb-18 03:00 5.4-1.0
2020-Feb-18 02:00 160 2 5.4-2.0
2020-Feb-18 01:00 150 4 5.4-2.0
2020-Feb-18 00:00 5.4-1.0
2020-Feb-17 23:00 350 2 5.4-0.0
2020-Feb-17 22:00 5.4 1.0
2020-Feb-17 21:00 220 2 5.4-0.0
2020-Feb-17 20:00 110 4 5.4 2.0
2020-Feb-17 19:00 080 11 5.4 2.0
2020-Feb-17 18:00 080 7 5.4 3.0
2020-Feb-17 17:00 020 6 5.4 3.0
2020-Feb-17 16:00 020 6 5.4 3.0
2020-Feb-17 15:00 020 13 5.4 4.0
2020-Feb-17 14:00 360 13 5.4 4.0
2020-Feb-17 13:00 020 13 5.4 4.0
2020-Feb-17 12:00 030 20 5.4 3.0
2020-Feb-17 11:00 030 19 5.4 4.0
2020-Feb-17 10:00 030 18 gusting 27 5.4 4.0
2020-Feb-17 09:00 5.4 4.0
2020-Feb-17 08:00 010 4 5.4 4.0
2020-Feb-17 07:00 330 12 5.4 2.0
2020-Feb-17 06:00 330 18 gusting 35 5.4 2.0
2020-Feb-17 05:00 330 19 5.4 1.0
2020-Feb-17 04:00 340 24 5.4 2.0
2020-Feb-17 03:00 350 28 gusting 41 5.4 2.0
2020-Feb-17 02:25 360 31 gusting 41 5.4 2.0
2020-Feb-17 02:00 360 15 5.4 3.0
2020-Feb-17 01:00 360 19 5.4 3.0
2020-Feb-17 00:00 030 18 5.4 3.0
2020-Feb-16 23:00 050 11 gusting 20 5.4 2.0 Light rain showers.
2020-Feb-16 22:00 360 26 5.4 2.0 Light rain showers.
2020-Feb-16 21:00 360 13 5.4 2.0 Light rain showers.
2020-Feb-16 20:00 340 11 5.4 2.0
2020-Feb-16 19:00 330 12 5.4 3.0
2020-Feb-16 18:00 350 14 5.4 3.0
2020-Feb-16 17:00 010 18 5.4 4.0
2020-Feb-16 16:00 310 13 5.4 4.0
2020-Feb-16 15:00 350 18 5.4 4.0
2020-Feb-16 14:00 350 15 5.4 4.0
2020-Feb-16 13:00 340 6 5.4 4.0
2020-Feb-16 12:00 350 6 5.4 4.0